Location: *
(55.5817°S, 142.4781°W)
Time: 07:39:18
(UTC+00:00)

IRS-P3 - Pass Details

Date: 29 April 2025
Orbit: 811 x 815 km, 99.0° (Epoch: 23 May)

Event Time Altitude Azimuth Distance (km) Brightness Sun altitude
Rises 14:25:28 0° 19° (NNE) 3,347 7.5 -20.8°
Reaches altitude 10° 14:27:47 10° 19° (NNE) 2,423 6.8 -20.4°
Maximum altitude 14:33:11 89° 293° (WNW) 837 4.1 -19.7°
Drops below altitude 10° 14:38:38 10° 197° (SSW) 2,451 6.4 -18.9°
Sets 14:41:00 0° 197° (SSW) 3,389 7.2 -18.6°
